Waldport Weather Center

Moon Phase Calendar



Online Cameras

 


      

Current Conditions in Waldport
9/17/2021 5:29:12 AM

48°F
Feels Like 47
Clear
Humidity
94%
Pressure
29.94"
Wind
3.4 mph (S)
Dew Point
46°F
UV Index
0/10 (Low)
Visibility
6 mi

Hourly Forecast

Date & Time Fri, Sep 17
5:00 AM
Fri, Sep 17
6:00 AM
Fri, Sep 17
7:00 AM
Fri, Sep 17
8:00 AM
Fri, Sep 17
9:00 AM
Fri, Sep 17
10:00 AM
Fri, Sep 17
11:00 AM
Fri, Sep 17
12:00 PM
Fri, Sep 17
1:00 PM
Fri, Sep 17
2:00 PM
Fri, Sep 17
3:00 PM
Fri, Sep 17
4:00 PM
Fri, Sep 17
5:00 PM
Fri, Sep 17
6:00 PM
Fri, Sep 17
7:00 PM
Fri, Sep 17
8:00 PM
Fri, Sep 17
9:00 PM
Fri, Sep 17
10:00 PM
Fri, Sep 17
11:00 PM
Sat, Sep 18
12:00 AM
Sat, Sep 18
1:00 AM
Sat, Sep 18
2:00 AM
Sat, Sep 18
3:00 AM
Sat, Sep 18
4:00 AM
Sat, Sep 18
5:00 AM
Sat, Sep 18
6:00 AM
Sat, Sep 18
7:00 AM
Sat, Sep 18
8:00 AM
Sat, Sep 18
9:00 AM
Sat, Sep 18
10:00 AM
Sat, Sep 18
11:00 AM
Sat, Sep 18
12:00 PM
Sat, Sep 18
1:00 PM
Sat, Sep 18
2:00 PM
Sat, Sep 18
3:00 PM
Sat, Sep 18
4:00 PM
Sat, Sep 18
5:00 PM
Sat, Sep 18
6:00 PM
Sat, Sep 18
7:00 PM
Sat, Sep 18
8:00 PM
Sat, Sep 18
9:00 PM
Sat, Sep 18
10:00 PM
Sat, Sep 18
11:00 PM
Sun, Sep 19
12:00 AM
Sun, Sep 19
1:00 AM
Sun, Sep 19
2:00 AM
Sun, Sep 19
3:00 AM
Sun, Sep 19
4:00 AM
Condition
Clear

Clouds

Clouds

Clouds

Clouds

Clouds

Clouds

Clouds

Clouds

Clouds

Clouds

Clouds

Clouds

Clouds

Clouds

Clouds

Rain

Rain

Rain

Rain

Rain

Rain

Rain

Rain

Rain

Rain

Rain

Rain

Rain

Rain

Rain

Rain

Rain

Rain

Rain

Rain

Clouds

Clouds

Clouds

Clouds

Clouds

Rain

Rain

Rain

Rain

Rain

Rain

Rain
Temperature 48°F49°F49°F51°F55°F60°F63°F64°F64°F65°F65°F63°F61°F60°F60°F59°F60°F60°F60°F57°F55°F55°F55°F55°F55°F54°F55°F55°F55°F55°F56°F56°F57°F58°F58°F57°F57°F56°F55°F54°F54°F54°F54°F54°F53°F53°F53°F53°F
Feels Like 45°F46°F47°F50°F53°F58°F62°F62°F63°F64°F64°F63°F61°F60°F60°F59°F60°F60°F60°F58°F55°F55°F55°F55°F54°F54°F54°F54°F55°F55°F56°F56°F57°F58°F58°F57°F57°F56°F54°F53°F53°F53°F54°F53°F53°F53°F53°F53°F
Cloudiness 1%21%41%60%80%100%100%100%100%94%95%96%96%100%100%100%100%100%100%100%100%100%100%100%100%100%100%100%100%100%100%99%98%93%90%88%83%56%59%71%78%82%85%100%100%100%100%100%
Visibility 6 mi6 mi6 mi6 mi6 mi6 mi6 mi6 mi6 mi6 mi6 mi6 mi6 mi6 mi6 mi6 mi6 mi6 mi2 mi0 mi0 mi0 mi0 mi0 mi0 mi3 mi5 mi3 mi1 mi4 mi3 mi3 mi4 mi3 mi6 mi4 mi6 mi6 mi6 mi6 mi6 mi6 mi6 mi4 mi5 mi0 mi0 mi0 mi
Precipitation 0%0%0%0%0%0%0%0%0%0%0%0%0%6%6%6%21%38%63%90%95%100%100%100%100%99%100%100%100%100%100%71%74%79%79%76%78%55%56%55%58%64%67%92%100%100%100%100%
Humidity 94%91%88%81%70%53%48%53%58%63%70%80%86%89%91%93%95%97%98%99%99%99%100%100%99%99%99%99%99%99%98%97%94%90%88%90%88%89%93%96%96%95%94%97%98%99%99%99%
Dew Point 46°F46°F46°F46°F45°F41°F41°F44°F47°F51°F54°F56°F56°F56°F56°F56°F57°F58°F58°F56°F54°F54°F54°F54°F53°F53°F53°F54°F54°F54°F54°F54°F54°F54°F54°F53°F53°F52°F52°F51°F52°F51°F52°F52°F52°F52°F52°F52°F
Pressure 29.94"29.94"29.94"29.91"29.91"29.88"29.88"29.88"29.85"29.85"29.83"29.83"29.8"29.8"29.8"29.77"29.77"29.77"29.74"29.8"29.8"29.8"29.8"29.8"29.8"29.8"29.83"29.83"29.83"29.83"29.85"29.85"29.83"29.85"29.85"29.83"29.85"29.85"29.85"29.85"29.85"29.85"29.85"29.85"29.85"29.85"29.88"29.88"
Wind Speed 6 mph6.8 mph6.6 mph6.8 mph7.8 mph9.2 mph10.4 mph12.5 mph13.5 mph13.6 mph14.2 mph14.5 mph13.2 mph14.1 mph14.7 mph15.3 mph16.2 mph17.9 mph19 mph17.4 mph8.5 mph7.3 mph8.3 mph7.2 mph7.5 mph6.2 mph6.5 mph7.7 mph8.2 mph8.5 mph9.5 mph10.5 mph11.6 mph12.3 mph12.8 mph12.8 mph12.6 mph12.7 mph11.3 mph11.3 mph10.9 mph12 mph13 mph13.8 mph11.9 mph10.8 mph11.1 mph12 mph
Wind
Direction
175°
S
159°
SSE
167°
SSE
169°
S
173°
S
177°
S
197°
SSW
194°
SSW
196°
SSW
196°
SSW
200°
SSW
196°
SSW
191°
S
187°
S
183°
S
182°
S
185°
S
189°
S
199°
SSW
232°
SW
219°
SW
212°
SSW
205°
SSW
211°
SSW
187°
S
161°
SSE
183°
S
193°
SSW
183°
S
182°
S
191°
S
192°
SSW
193°
SSW
199°
SSW
202°
SSW
200°
SSW
198°
SSW
192°
SSW
189°
S
179°
S
178°
S
180°
S
179°
S
195°
SSW
202°
SSW
189°
S
198°
SSW
198°
SSW

Daily Forecast

Date High Low Precip. Humidity
Today
Sep 17

Rain
65 °F
48 °F
63%
58%
Saturday
Sep 18

Rain
58 °F
54 °F
100%
94%
Sunday
Sep 19

Rain
59 °F
51 °F
100%
77%
Monday
Sep 20

Clear
64 °F
51 °F
0%
61%
Tuesday
Sep 21

Clear
71 °F
52 °F
0%
48%
Wednesday
Sep 22

Rain
59 °F
51 °F
80%
86%
Thursday
Sep 23

Clouds
65 °F
49 °F
0%
53%
Friday
Sep 24

Clear
74 °F
54 °F
0%
43%
Saturday
Sep 25

Clear
74 °F
56 °F
0%
48%
Sunday
Sep 26

Clear
64 °F
51 °F
0%
63%
Monday
Sep 27

Clouds
56 °F
51 °F
0%
84%
Tuesday
Sep 28

Clouds
63 °F
49 °F
0%
62%
Wednesday
Sep 29

Clear
67 °F
53 °F
0%
47%
Thursday
Sep 30

Clouds
65 °F
51 °F
0%
54%
Friday
Oct 1

Clouds
62 °F
50 °F
0%
70%
Saturday
Oct 2

Clouds
61 °F
50 °F
0%
70%

Temperature 8-14 Day Outlook



Precipitation 8-14 Day Outlook




Quick Links
Waldport News
Waldport Photos
Waldport Videos




About Us
Contact Us
Site Map
Search Site
Advertise With Us
   
Waldport.USCoast.info
THE WALDPORT WEBSITE

Copyright 2021, Coastal Town
Privacy    |    Legal